Location: Bussy-Saint-Georges
(48.8410°N, 2.7017°E)
Time: 21:26:29
(UTC+00:00)

Cosmos 2263 Rocket - Pass Details

Date: 18 October 2021
Orbit: 825 x 847 km, 71.0° (Epoch: 07 December)

Event Time Altitude Azimuth Distance (km) Brightness Sun altitude
Rises 18:27:35 0° 330° (NNW) 3,376 5.8 -16.2°
Reaches altitude 10° 18:30:01 10° 330° (NNW) 2,437 5.0 -16.6°
Maximum altitude 18:35:36 80° 245° (WSW) 844 2.2 -17.5°
Drops below altitude 10° 18:41:09 10° 159° (SSE) 2,421 4.3 -18.4°
Enters shadow 18:42:05 - 158° (SSE) 2,779 4.6 -18.6°
